SL-14 R/B (16496 NORAD) Tracking and Keplerian Element Data

This shows tracking and keplerian element data for the satellite.

Feedback or suggestion? Click here.




ElementValue
Catalog16496
NameSL-14 R/B
Epoch Orbit92447
Epoch Day15.74074215
Epoch Year2022
RAAN241.0599
Inclination82.5238
Eccentricity0.0018023
Argument of Perigee308.3329
Mean Anonmoly119.1636
Mean Motion14.84226254
Decay Rate1.76E-06
L11 16496U 86006B 22015.74074215 .00000176 00000+0 18108-4 0 9991
L22 16496 82.5238 241.0599 0018023 308.3329 119.1636 14.84226254924479

Live tracking and technical data element details for SL-14 R/B (NORAD 16496). SL-14 R/B can be tracked NOW for your location showing map with azimuth and elevation plus other details from your city location.

Track the satellite on the map from your city or location and see movement details for azimuth, elevation, latitude, longitude, range, height, and movement on the map or in text.







IsCatalogInMostPopularTable: catalog: 16496, numindb: 297
Update: records affected: 1



GetName: 16496 SL-14 R/B

Hit Count: updated at: Mon, 17 Jan 2022 00:25:28 GMT